TimeCST,TemperatureF,Dew PointF,Humidity,Sea Level PressureIn,VisibilityMPH,Wind Direction,Wind SpeedMPH,Gust SpeedMPH,PrecipitationIn,Events,Conditions,WindDirDegrees,DateUTC
12:56 AM,57.9,48.9,72,29.95,10.0,SE,9.2,-,N/A,,Clear,140,2014-01-23 06:56:00
1:56 AM,57.9,50.0,75,29.93,10.0,SE,9.2,-,N/A,,Clear,140,2014-01-23 07:56:00
2:56 AM,56.8,50.9,80,29.96,10.0,SE,6.9,-,N/A,,Clear,130,2014-01-23 08:56:00
3:56 AM,55.9,50.9,83,29.96,10.0,ESE,5.8,-,N/A,,Clear,120,2014-01-23 09:56:00
4:56 AM,54.9,52.0,90,29.97,10.0,Calm,Calm,-,N/A,,Clear,0,2014-01-23 10:56:00
5:45 AM,55.4,53.6,94,30.01,10.0,East,8.1,-,N/A,,Mostly Cloudy,80,2014-01-23 11:45:00
5:56 AM,56.8,54.9,93,29.99,10.0,East,9.2,-,N/A,,Overcast,90,2014-01-23 11:56:00
6:56 AM,59.0,54.9,86,30.01,10.0,ESE,11.5,-,N/A,,Overcast,110,2014-01-23 12:56:00
7:56 AM,59.9,55.9,87,30.04,10.0,East,6.9,-,N/A,,Overcast,90,2014-01-23 13:56:00
8:56 AM,61.0,55.9,83,30.08,10.0,East,8.1,-,N/A,,Overcast,100,2014-01-23 14:56:00
9:56 AM,61.9,55.9,81,30.12,10.0,East,6.9,-,N/A,,Overcast,90,2014-01-23 15:56:00
10:56 AM,64.9,55.9,73,30.14,10.0,ESE,10.4,-,N/A,,Overcast,120,2014-01-23 16:56:00
11:56 AM,66.9,55.9,68,30.14,10.0,ESE,9.2,-,N/A,,Overcast,120,2014-01-23 17:56:00
12:07 PM,68.0,55.4,64,30.16,10.0,SE,12.7,-,N/A,,Overcast,130,2014-01-23 18:07:00
12:33 PM,68.0,55.4,64,30.17,10.0,East,6.9,-,N/A,,Overcast,100,2014-01-23 18:33:00
12:56 PM,68.0,54.9,63,30.14,10.0,ESE,10.4,-,N/A,,Overcast,120,2014-01-23 18:56:00
1:56 PM,66.9,55.9,68,30.14,10.0,ENE,11.5,-,0.00,,Overcast,60,2014-01-23 19:56:00
2:56 PM,63.9,59.0,84,30.16,10.0,North,4.6,-,0.00,Rain,Light Rain,10,2014-01-23 20:56:00
3:25 PM,60.8,55.4,82,30.21,10.0,NNE,17.3,24.2,0.00,Rain,Light Rain,30,2014-01-23 21:25:00
3:56 PM,55.9,50.0,80,30.22,10.0,NE,17.3,25.3,0.00,Rain,Light Rain,40,2014-01-23 21:56:00
4:56 PM,48.9,39.9,71,30.29,10.0,North,23.0,29.9,0.00,,Overcast,10,2014-01-23 22:56:00
5:56 PM,43.9,36.0,74,30.36,10.0,North,27.6,33.4,N/A,,Overcast,360,2014-01-23 23:56:00
6:56 PM,41.9,34.9,76,30.43,10.0,North,21.9,-,N/A,,Overcast,10,2014-01-24 00:56:00
7:32 PM,39.2,35.6,87,30.46,10.0,North,25.3,29.9,0.00,Rain,Light Rain,10,2014-01-24 01:32:00
7:56 PM,38.8,36.0,89,30.47,10.0,North,23.0,29.9,0.00,Rain,Light Rain,10,2014-01-24 01:56:00
8:56 PM,37.9,34.9,89,30.54,10.0,North,18.4,27.6,0.00,Rain,Light Rain,360,2014-01-24 02:56:00
9:26 PM,37.4,35.6,93,30.58,4.0,North,19.6,27.6,0.00,Rain,Light Rain,360,2014-01-24 03:26:00
9:56 PM,36.9,34.0,89,30.59,2.5,North,20.7,31.1,0.00,Rain,Light Rain,360,2014-01-24 03:56:00
10:02 PM,37.4,35.6,93,30.60,3.0,North,19.6,26.5,0.00,Rain,Light Rain,360,2014-01-24 04:02:00
10:23 PM,35.6,33.8,93,30.62,4.0,North,12.7,-,0.00,Rain,Light Rain,10,2014-01-24 04:23:00
10:31 PM,35.6,35.6,100,30.63,4.0,North,11.5,-,0.00,Rain,Light Rain,10,2014-01-24 04:31:00
10:48 PM,35.6,35.6,100,30.64,4.0,North,15.0,19.6,0.00,Rain,Light Rain,360,2014-01-24 04:48:00
10:56 PM,36.0,34.0,93,30.63,4.0,North,19.6,24.2,0.00,Rain,Light Rain,360,2014-01-24 04:56:00
11:18 PM,35.6,33.8,93,30.65,10.0,North,16.1,-,0.00,Rain,Light Rain,10,2014-01-24 05:18:00
11:56 PM,34.9,32.0,89,30.64,10.0,North,17.3,-,0.00,Rain,Light Rain,10,2014-01-24 05:56:00